Location: Hobi?a Gr?di?te
(45.4833°N, 22.7833°E)
Time: 20:52:33
(UTC+00:00)

Cosmos 2227 Rocket - Pass Details

Date: 28 January 2023
Orbit: 839 x 845 km, 71.0° (Epoch: 22 March)

Event Time Altitude Azimuth Distance (km) Brightness Sun altitude
Rises 16:23:50 0° 328° (NNW) 3,413 5.6 -9.8°
Reaches altitude 10° 16:26:23 10° 322° (NW) 2,474 4.9 -10.2°
Maximum altitude 16:31:43 44° 252° (WSW) 1,159 3.6 -11.1°
Drops below altitude 10° 16:37:01 10° 182° (S) 2,455 4.8 -12.0°
Sets 16:39:33 0° 176° (S) 3,385 5.5 -12.4°
